Location: Gleizolles
(44.4833°N, 6.7667°E)
Time: 00:53:56
(UTC+00:00)

Tiros 1 despin weight - Pass Details

Date: 02 July 2024
Orbit: 576 x 620 km, 48.2° (Epoch: 24 July)

Event Time Altitude Azimuth Distance (km) Brightness Sun altitude
Rises 12:58:35 0° 292° (WNW) 2,893 ? 62.8°
Reaches altitude 10° 13:00:55 10° 289° (WNW) 1,988 ? 62.5°
Maximum altitude 13:05:27 68° 207° (SSW) 669 ? 61.9°
Drops below altitude 10° 13:09:59 10° 125° (SE) 1,977 ? 61.3°
Sets 13:12:17 0° 123° (ESE) 2,877 ? 61.0°
